CW2014 Weather Reports


time (UTC)temp
C
wind
direction
speed
KPH
gust
KPH
rain 1hr
cm
rain 24hr
cm
rain mn
cm
humidity
%
barometer
mb
20260901161607 30 209 1.6 11.3 0.00 0.10 0.00 59 1013.8
20260901161034 29 193 3.2 12.9 0.00 0.10 0.00 59 1013.8
20260901160528 29 204 4.8 14.5 0.00 0.10 0.00 60 1013.7
20260901160106 29 161 4.8 14.5 0.00 0.10 0.00 61 1013.8
20260901155524 28 197 3.2 14.5 0.00 0.36 0.00 61 1013.7
20260901155024 28 162 3.2 14.5 0.00 0.36 0.00 61 1013.6
20260901154548 28 153 3.2 11.3 0.00 0.36 0.00 62 1013.7
20260901154026 28 168 1.6 11.3 0.00 0.36 0.00 63 1013.5
20260901153531 28 150 3.2 11.3 0.00 0.36 0.00 63 1013.5
20260901153057 27 96 1.6 12.9 0.00 0.36 0.00 65 1013.5
20260901152525 27 119 4.8 14.5 0.00 0.36 0.00 65 1013.5
20260901152028 27 151 4.8 14.5 0.00 0.36 0.00 65 1013.5
20260901151545 27 139 4.8 14.5 0.00 0.36 0.00 65 1013.5
20260901151024 27 97 4.8 14.5 0.00 0.36 0.00 67 1013.6
20260901150531 27 98 3.2 14.5 0.00 0.36 0.00 67 1013.6
20260901150053 27 169 3.2 14.5 0.00 0.36 0.00 67 1013.5
20260901145526 27 131 3.2 11.3 0.00 0.41 0.00 67 1013.5
20260901145028 27 127 0.0 6.4 0.00 0.41 0.00 68 1013.5
20260901144549 26 105 1.6 6.4 0.00 0.41 0.00 69 1013.4
20260901144025 26 113 0.0 4.8 0.00 0.41 0.00 70 1013.3
20260901143527 26 66 0.0 6.4 0.00 0.41 0.00 71 1013.3
20260901143106 26 145 1.6 6.4 0.00 0.41 0.00 71 1013.3
20260901142525 26 0 1.6 6.4 0.00 0.41 0.00 72 1013.2
20260901142027 25 57 1.6 6.4 0.00 0.41 0.00 72 1013.3
20260901141548 25 0 0.0 4.8 0.00 0.41 0.00 73 1013.3
20260901141030 25 151 0.0 3.2 0.00 0.41 0.00 73 1013.2
20260901140525 25 0 0.0 4.8 0.00 0.41 0.00 74 1013.2
20260901135527 24 0 0.0 9.7 0.00 0.41 0.00 76 1013.2
20260901135029 24 0 1.6 9.7 0.00 0.41 0.00 76 1013.1
20260901134554 24 113 1.6 9.7 0.00 0.41 0.00 77 1013.1
20260901134029 23 102 0.0 6.4 0.00 0.41 0.00 78 1013.0
20260901133525 23 79 1.6 6.4 0.00 0.41 0.00 79 1013.0
20260901133048 23 0 0.0 3.2 0.00 0.41 0.00 79 1012.9
20260901132525 23 0 0.0 0.0 0.00 0.41 0.00 80 1012.9
20260901132027 23 0 0.0 3.2 0.00 0.41 0.00 80 1012.9
20260901131552 23 0 0.0 3.2 0.00 0.41 0.00 80 1012.8
20260901131025 23 0 0.0 3.2 0.00 0.41 0.00 80 1012.7
20260901130529 23 0 0.0 1.6 0.00 0.41 0.00 80 1012.7
20260901130052 23 0 0.0 0.0 0.00 0.41 0.00 80 1012.7
20260901125524 23 0 0.0 0.0 0.00 0.41 0.00 80 1012.8
20260901125027 23 0 0.0 0.0 0.00 0.41 0.00 80 1012.8
20260901124549 23 0 0.0 0.0 0.00 0.41 0.00 80 1012.8
20260901124023 23 0 0.0 0.0 0.00 0.41 0.00 80 1012.7
20260901123525 23 0 0.0 0.0 0.00 0.41 0.00 80 1012.7
20260901123054 23 0 0.0 1.6 0.00 0.41 0.00 80 1012.8
20260901122526 23 0 0.0 4.8 0.00 0.41 0.00 80 1012.7
20260901122023 23 0 0.0 4.8 0.00 0.41 0.00 80 1012.6
20260901121547 23 150 0.0 8.0 0.00 0.41 0.00 80 1012.5
20260901121028 23 150 1.6 8.0 0.00 0.41 0.00 80 1012.6
20260901120523 23 0 0.0 1.6 0.00 0.41 0.00 80 1012.5
20260901120059 23 0 0.0 1.6 0.00 0.41 0.00 79 1012.4
20260901115527 23 0 0.0 4.8 0.00 0.41 0.00 79 1012.4
20260901115026 23 0 0.0 4.8 0.00 0.41 0.00 79 1012.4
20260901114550 23 150 0.0 4.8 0.00 0.41 0.00 79 1012.3
20260901114028 23 0 0.0 3.2 0.00 0.41 0.00 79 1012.3
20260901113525 23 0 0.0 8.0 0.00 0.41 0.00 79 1012.2
20260901113050 23 0 1.6 8.0 0.00 0.41 0.00 79 1012.3
20260901112525 23 0 1.6 8.0 0.00 0.41 0.00 79 1012.1
20260901112025 23 135 3.2 6.4 0.00 0.41 0.00 79 1012.2
20260901111555 23 146 0.0 4.8 0.00 0.41 0.00 80 1012.1
20260901111029 23 147 0.0 4.8 0.00 0.41 0.00 80 1012.0
20260901110525 23 147 1.6 3.2 0.00 0.41 0.00 80 1012.2
20260901110052 23 0 0.0 3.2 0.00 0.41 0.00 80 1012.1
20260901105525 23 137 0.0 3.2 0.00 0.41 0.00 80 1012.1
20260901105028 23 137 0.0 3.2 0.00 0.41 0.00 80 1012.1
20260901104550 23 0 0.0 3.2 0.00 0.41 0.00 80 1012.1
20260901104024 23 0 0.0 3.2 0.00 0.41 0.00 80 1012.2
20260901103523 23 0 0.0 3.2 0.00 0.41 0.00 80 1012.2
20260901103055 23 0 0.0 1.6 0.00 0.41 0.00 80 1012.3
20260901102523 23 0 0.0 1.6 0.00 0.41 0.00 80 1012.3
20260901102024 23 0 0.0 3.2 0.00 0.41 0.00 80 1012.3
20260901101545 23 0 0.0 3.2 0.00 0.41 0.00 80 1012.3
20260901101024 23 0 0.0 4.8 0.00 0.41 0.00 79 1012.3
20260901100525 23 137 1.6 4.8 0.00 0.41 0.00 79 1012.3
20260901100054 23 137 0.0 4.8 0.00 0.41 0.00 79 1012.2
20260901095525 23 0 0.0 0.0 0.00 0.41 0.00 79 1012.2
20260901095024 23 0 0.0 0.0 0.00 0.41 0.00 79 1012.3
20260901094547 23 0 0.0 0.0 0.00 0.41 0.00 78 1012.2
20260901094024 23 0 0.0 0.0 0.00 0.41 0.00 78 1012.3
20260901093525 23 0 0.0 0.0 0.00 0.41 0.00 78 1012.4
20260901093051 23 0 0.0 0.0 0.00 0.41 0.00 78 1012.5
20260901092533 23 0 0.0 0.0 0.00 0.41 0.00 78 1012.4
20260901092029 23 0 0.0 0.0 0.00 0.41 0.00 78 1012.5
20260901091548 24 0 0.0 0.0 0.00 0.41 0.00 78 1012.4
20260901091024 23 0 0.0 4.8 0.00 0.41 0.00 78 1012.4
20260901090524 24 0 0.0 4.8 0.00 0.41 0.00 77 1012.4
20260901090048 24 117 0.0 4.8 0.00 0.41 0.00 77 1012.5
20260901085523 24 0 0.0 1.6 0.00 0.41 0.00 77 1012.5
20260901085023 24 0 0.0 1.6 0.00 0.41 0.00 77 1012.6
20260901084555 24 0 0.0 1.6 0.00 0.41 0.00 77 1012.5
20260901084027 24 0 0.0 1.6 0.00 0.41 0.00 77 1012.6
20260901083526 24 0 0.0 1.6 0.00 0.41 0.00 77 1012.6
20260901083050 24 0 0.0 3.2 0.00 0.41 0.00 77 1012.6
20260901082526 24 0 0.0 4.8 0.00 0.41 0.00 76 1012.6
20260901082028 24 0 0.0 4.8 0.00 0.41 0.00 76 1012.6
20260901081550 24 0 1.6 4.8 0.00 0.41 0.00 76 1012.5
20260901081025 24 0 0.0 4.8 0.00 0.41 0.00 76 1012.5
20260901080524 24 111 1.6 4.8 0.00 0.41 0.00 75 1012.5
20260901080053 24 153 0.0 4.8 0.00 0.41 0.00 75 1012.5
20260901075524 24 153 1.6 4.8 0.00 0.69 0.00 75 1012.6
20260901075025 24 153 0.0 6.4 0.00 0.69 0.00 75 1012.5
20260901074549 24 149 0.0 6.4 0.00 0.69 0.00 74 1012.6
20260901074023 25 163 1.6 8.0 0.00 0.69 0.00 74 1012.5
20260901073524 25 148 1.6 8.0 0.00 0.69 0.00 73 1012.5
20260901073046 25 0 1.6 8.0 0.00 0.69 0.00 73 1012.5
20260901072524 25 0 1.6 8.0 0.00 0.69 0.00 72 1012.5
20260901072027 25 161 3.2 9.7 0.00 0.69 0.00 72 1012.5
20260901071553 25 150 1.6 9.7 0.00 0.69 0.00 72 1012.4
20260901071027 25 142 3.2 9.7 0.00 0.69 0.00 71 1012.4
20260901070527 25 161 4.8 11.3 0.00 0.69 0.00 71 1012.3
20260901070051 25 142 4.8 11.3 0.00 0.69 0.00 71 1012.3
20260901065525 25 147 4.8 11.3 0.00 0.69 0.69 70 1012.3
20260901065026 25 193 3.2 8.0 0.00 0.69 0.69 70 1012.3
20260901064547 25 146 3.2 9.7 0.00 0.69 0.69 70 1012.2
20260901064028 25 142 3.2 9.7 0.00 0.69 0.69 70 1012.2
20260901063525 25 154 3.2 8.0 0.00 0.69 0.69 70 1012.2
20260901063104 25 154 1.6 4.8 0.00 0.69 0.69 70 1012.3
20260901062529 25 154 1.6 6.4 0.00 0.69 0.69 70 1012.2
20260901062027 25 154 1.6 12.9 0.00 0.69 0.69 71 1012.1
20260901061602 25 146 3.2 12.9 0.00 0.69 0.69 71 1012.0
20260901061025 25 138 3.2 11.3 0.00 0.69 0.69 72 1012.1
20260901060523 25 112 1.6 9.7 0.00 0.69 0.69 72 1012.0
20260901060056 25 149 3.2 8.0 0.00 0.69 0.69 71 1012.0
20260901055524 26 150 3.2 8.0 0.00 0.69 0.69 71 1012.0
20260901055028 26 76 1.6 11.3 0.00 0.69 0.69 70 1012.0
20260901054551 26 136 3.2 11.3 0.00 0.69 0.69 70 1011.9
20260901054025 26 155 3.2 9.7 0.00 0.69 0.69 69 1012.0
20260901053530 26 159 4.8 11.3 0.00 0.69 0.69 69 1012.0
20260901053105 26 132 3.2 11.3 0.00 0.69 0.69 69 1011.9
20260901052523 26 133 3.2 11.3 0.00 0.69 0.69 68 1012.0
20260901052024 26 138 3.2 11.3 0.00 0.69 0.69 68 1012.0
20260901051550 26 148 1.6 12.9 0.00 0.69 0.69 67 1012.0
20260901051024 26 148 3.2 14.5 0.00 0.69 0.69 66 1012.0
20260901050527 26 160 4.8 14.5 0.00 0.69 0.69 65 1012.0
20260901050052 26 159 3.2 9.7 0.00 0.69 0.69 64 1012.0
20260901045530 26 149 3.2 8.0 0.00 0.69 0.69 63 1012.1
20260901045028 27 147 1.6 6.4 0.00 0.69 0.69 63 1012.0
20260901044600 27 147 1.6 6.4 0.00 0.69 0.69 62 1012.0
20260901044027 27 0 1.6 6.4 0.00 0.69 0.69 62 1011.9
20260901043523 27 159 1.6 12.9 0.00 0.69 0.69 61 1011.9
20260901043052 27 142 3.2 14.5 0.00 0.69 0.69 60 1012.0
20260901042523 27 141 4.8 14.5 0.00 0.69 0.69 60 1011.9
20260901042024 27 149 6.4 14.5 0.00 0.69 0.69 60 1011.9
20260901041548 27 192 4.8 12.9 0.00 0.69 0.69 60 1011.8
20260901041027 27 156 3.2 12.9 0.00 0.69 0.69 59 1012.0
20260901040527 27 178 3.2 11.3 0.00 0.69 0.69 58 1012.0
20260901040055 27 147 1.6 9.7 0.00 0.69 0.69 58 1011.9
20260901035526 27 148 1.6 11.3 0.00 0.69 0.69 57 1011.9
20260901035026 27 141 4.8 11.3 0.00 0.69 0.69 57 1011.9
20260901034551 27 169 3.2 11.3 0.00 0.69 0.69 56 1011.8
20260901034028 27 155 3.2 11.3 0.00 0.69 0.69 56 1011.7
20260901033524 28 157 3.2 11.3 0.00 0.69 0.69 56 1011.6
20260901033048 28 170 4.8 11.3 0.00 0.69 0.69 55 1011.6
20260901032524 28 148 3.2 11.3 0.00 0.69 0.69 55 1011.6
20260901032024 28 145 3.2 11.3 0.00 0.69 0.69 55 1011.5
20260901031554 28 140 4.8 11.3 0.00 0.69 0.69 54 1011.4
20260901031027 28 174 3.2 11.3 0.00 0.69 0.69 54 1011.4
20260901030524 28 161 3.2 11.3 0.00 0.69 0.69 53 1011.3
20260901030055 28 173 4.8 12.9 0.00 0.69 0.69 52 1011.3
20260901025529 28 177 6.4 12.9 0.00 0.69 0.69 52 1011.2
20260901025025 28 161 3.2 11.3 0.00 0.69 0.69 51 1011.2
20260901024554 28 183 4.8 11.3 0.00 0.69 0.69 50 1011.1
20260901024029 28 155 1.6 8.0 0.00 0.69 0.69 50 1011.0
20260901023526 28 172 1.6 8.0 0.00 0.69 0.69 50 1011.1
20260901023049 28 161 1.6 9.7 0.00 0.69 0.69 49 1011.2
20260901022527 28 165 3.2 9.7 0.00 0.69 0.69 50 1011.1
20260901022031 28 152 1.6 9.7 0.00 0.69 0.69 50 1010.8
20260901021550 28 0 1.6 9.7 0.00 0.69 0.69 50 1010.6
20260901021028 28 155 3.2 11.3 0.00 0.69 0.69 50 1010.6
20260901020526 28 157 1.6 11.3 0.00 0.69 0.69 51 1010.6
20260901020105 29 144 3.2 11.3 0.00 0.69 0.69 51 1010.6
20260901015524 29 159 3.2 9.7 0.00 0.69 0.69 52 1010.4
20260901015027 29 159 1.6 12.9 0.00 0.69 0.69 52 1010.4
20260901014548 29 144 3.2 12.9 0.00 0.69 0.69 51 1010.5
20260901014024 30 184 3.2 12.9 0.00 0.69 0.69 51 1010.5
20260901013531 30 151 1.6 6.4 0.00 0.69 0.69 48 1010.3
20260901013050 30 107 1.6 11.3 0.00 0.69 0.69 47 1010.4
20260901012524 30 138 1.6 11.3 0.00 0.69 0.69 46 1010.4
20260901012025 30 97 1.6 9.7 0.00 0.69 0.69 46 1010.5
20260901011550 30 106 3.2 9.7 0.00 0.69 0.69 47 1010.5
20260901011024 30 86 3.2 11.3 0.00 0.69 0.69 47 1010.4
20260901010527 30 100 3.2 16.1 0.00 0.69 0.69 48 1010.5
20260901010049 30 65 3.2 16.1 0.00 0.69 0.69 48 1010.6
20260901005528 30 61 3.2 14.5 0.00 0.69 0.69 48 1010.6
20260901005026 30 57 3.2 11.3 0.00 0.69 0.69 48 1010.7
20260901004556 30 105 1.6 11.3 0.00 0.69 0.69 50 1010.7
20260901004024 30 119 3.2 9.7 0.00 0.69 0.69 50 1010.9
20260901003525 30 79 3.2 11.3 0.00 0.69 0.69 51 1010.9
20260901003053 30 72 3.2 12.9 0.00 0.69 0.69 51 1010.9
20260901002525 30 88 3.2 12.9 0.00 0.69 0.69 51 1010.8
20260901002029 30 111 3.2 12.9 0.00 0.69 0.69 50 1011.0
20260901001549 30 66 3.2 11.3 0.00 0.69 0.69 50 1010.9
20260901001026 30 92 3.2 9.7 0.00 0.69 0.69 51 1010.8
20260901000524 30 342 1.6 9.7 0.00 0.69 0.69 51 1011.1
20260901000105 30 89 3.2 9.7 0.00 0.69 0.69 51 1011.0
20260831235525 30 165 3.2 9.7 0.00 0.69 0.69 51 1011.1
20260831235027 30 82 1.6 12.9 0.00 0.69 0.69 51 1011.2
20260831234550 30 0 3.2 14.5 0.00 0.69 0.69 51 1011.1
20260831234026 30 141 3.2 14.5 0.00 0.69 0.69 50 1011.1
20260831233527 30 142 3.2 16.1 0.00 0.69 0.69 50 1011.0
20260831233054 30 68 4.8 16.1 0.00 0.69 0.69 49 1011.1
20260831232524 30 55 3.2 16.1 0.00 0.69 0.69 49 1011.0
20260831232024 30 103 3.2 16.1 0.00 0.69 0.69 49 1011.1
20260831231555 30 190 4.8 17.7 0.00 0.69 0.69 50 1011.1
20260831231024 30 0 6.4 17.7 0.00 0.69 0.69 51 1011.1
20260831230529 30 162 3.2 17.7 0.00 0.69 0.69 51 1011.1
20260831230055 30 122 3.2 19.3 0.00 0.69 0.69 50 1011.4
20260831225526 30 176 6.4 19.3 0.00 0.69 0.69 50 1011.5
20260831225027 30 140 4.8 16.1 0.00 0.69 0.69 51 1011.6
20260831224552 30 194 6.4 19.3 0.00 0.69 0.69 52 1011.7
20260831224024 30 129 6.4 22.5 0.00 0.69 0.69 51 1011.8
20260831223529 30 181 8.0 22.5 0.00 0.69 0.69 50 1011.8
20260831223055 30 127 4.8 20.9 0.00 0.69 0.69 51 1011.9
20260831222530 30 153 9.7 20.9 0.00 0.69 0.69 50 1012.1
20260831222029 30 101 6.4 17.7 0.00 0.69 0.69 51 1012.2
20260831221552 30 187 4.8 19.3 0.00 0.69 0.69 51 1012.2
20260831221028 30 159 6.4 19.3 0.00 0.69 0.69 51 1012.5
20260831220527 30 173 6.4 25.7 0.00 0.69 0.69 53 1012.8
20260831220052 30 196 6.4 25.7 0.00 0.69 0.69 53 1012.8
20260831215526 30 145 3.2 25.7 0.00 0.69 0.69 54 1012.9
20260831215025 30 145 8.0 25.7 0.00 0.69 0.69 52 1013.1
20260831214553 30 153 3.2 19.3 0.00 0.69 0.69 53 1013.2
20260831214023 30 161 4.8 19.3 0.00 0.69 0.69 53 1013.3
20260831213531 29 127 6.4 19.3 0.00 0.69 0.69 51 1013.5
20260831213056 29 183 6.4 17.7 0.00 0.69 0.69 52 1013.6
20260831212522 29 118 4.8 19.3 0.00 0.69 0.69 53 1013.7
20260831212025 29 163 8.0 19.3 0.00 0.69 0.69 54 1013.7
20260831211553 29 85 6.4 19.3 0.00 0.69 0.69 56 1013.8
20260831211025 29 167 8.0 24.1 0.00 0.69 0.69 55 1013.9
20260831210529 28 165 6.4 24.1 0.00 0.69 0.69 56 1013.9
20260831210050 28 121 9.7 22.5 0.00 0.69 0.69 57 1014.0
20260831205526 28 137 8.0 19.3 0.00 0.69 0.69 58 1014.0
20260831205025 28 99 4.8 19.3 0.00 0.69 0.69 62 1014.1
20260831204548 28 126 9.7 17.7 0.00 0.69 0.69 63 1014.1
20260831204027 28 103 6.4 19.3 0.00 0.69 0.69 64 1014.2
20260831203528 27 121 6.4 19.3 0.00 0.69 0.69 66 1014.3
20260831203046 27 65 4.8 22.5 0.00 0.69 0.69 68 1014.4
20260831202524 26 146 6.4 24.1 0.00 0.69 0.69 70 1014.3
20260831202026 26 145 9.7 24.1 0.00 0.69 0.69 71 1014.5
20260831201551 25 170 9.7 20.9 0.00 0.69 0.69 72 1014.5
20260831201025 25 151 9.7 22.5 0.00 0.69 0.69 73 1014.4
20260831200527 25 187 8.0 22.5 0.00 0.69 0.69 74 1014.6
20260831200052 25 133 8.0 19.3 0.00 0.69 0.69 74 1014.6
20260831195523 25 156 4.8 22.5 0.00 0.69 0.69 76 1014.7
20260831195023 24 117 6.4 22.5 0.00 0.69 0.69 76 1014.7
20260831194618 24 160 8.0 16.1 0.00 0.69 0.69 77 1014.9
20260831194024 24 158 8.0 19.3 0.00 0.69 0.69 76 1014.9
20260831193527 23 145 6.4 19.3 0.00 0.69 0.69 77 1014.8
20260831193051 23 157 8.0 19.3 0.00 0.69 0.69 77 1014.7
20260831192525 23 219 6.4 19.3 0.00 0.69 0.69 77 1014.7
20260831192024 23 133 8.0 25.7 0.00 0.69 0.69 77 1014.8
20260831191552 23 171 9.7 25.7 0.00 0.69 0.69 77 1014.9
20260831191023 23 174 8.0 22.5 0.00 0.69 0.69 78 1014.7
20260831190524 23 137 9.7 22.5 0.00 0.69 0.69 78 1014.7
20260831190105 23 184 9.7 25.7 0.00 0.69 0.69 78 1014.7
20260831185524 23 171 9.7 25.7 0.00 0.69 0.69 79 1015.0
20260831185026 23 144 12.9 25.7 0.00 0.69 0.69 81 1015.0
20260831184604 23 147 8.0 20.9 0.00 0.69 0.69 83 1015.0
20260831184025 23 150 8.0 20.9 0.00 0.69 0.69 84 1014.9
20260831183525 23 178 9.7 25.7 0.00 0.69 0.69 85 1015.0
20260831183048 23 186 11.3 25.7 0.00 0.69 0.69 85 1015.0
20260831182525 23 153 11.3 29.0 0.00 0.69 0.69 85 1015.0
20260831182030 23 139 11.3 29.0 0.00 0.69 0.69 83 1015.0
20260831181554 23 185 12.9 25.7 0.00 0.69 0.69 81 1015.1
20260831181028 24 137 12.9 25.7 0.00 0.69 0.69 81 1015.3
20260831180528 24 189 11.3 20.9 0.00 0.69 0.69 82 1015.3
20260831180050 24 210 8.0 17.7 0.00 0.69 0.69 83 1015.4
20260831175525 23 143 6.4 17.7 0.00 0.69 0.69 84 1015.6
20260831175024 23 137 4.8 12.9 0.00 0.69 0.69 85 1015.6
20260831174549 23 157 4.8 12.9 0.00 0.69 0.69 86 1015.8
20260831174027 23 138 4.8 11.3 0.00 0.69 0.69 87 1015.8
20260831173524 23 140 1.6 6.4 0.03 0.69 0.69 88 1015.7
20260831173049 23 126 1.6 9.7 0.03 0.69 0.69 88 1015.6
20260831172524 23 126 3.2 11.3 0.05 0.69 0.69 87 1015.6
20260831172026 23 0 1.6 11.3 0.05 0.69 0.69 87 1015.6
20260831171548 23 92 1.6 14.5 0.05 0.69 0.69 87 1015.6
20260831171028 23 88 4.8 16.1 0.08 0.69 0.69 87 1015.3
20260831170534 23 120 6.4 16.1 0.08 0.69 0.69 87 1015.3
20260831170051 23 38 1.6 11.3 0.08 0.69 0.69 87 1015.4
20260831165527 23 80 3.2 11.3 0.10 0.69 0.69 87 1015.3
20260831165025 23 67 3.2 14.5 0.15 0.69 0.69 87 1015.5
20260831164555 23 84 3.2 17.7 0.18 0.69 0.69 87 1015.2
20260831164023 23 69 6.4 17.7 0.20 0.69 0.69 87 1015.1
20260831163524 23 72 8.0 17.7 0.20 0.66 0.66 87 1015.2
20260831163050 23 43 6.4 19.3 0.23 0.66 0.66 87 1015.2
20260831162529 23 72 8.0 19.3 0.20 0.64 0.64 87 1015.0
20260831162028 23 54 9.7 19.3 0.23 0.64 0.64 87 1014.7